^^
Your Local Weather - Clay, NY Station Historical Data
Daily Summary for March 13, 2017 Units:  English    Metric   Both
« Previous Day
Next Day »
Daily Weekly Monthly Yearly Custom
  High: Low: Average:
Temperature: 21.5 °F 4.2 °F 14.9 °F
Dew Point: 6.6 °F -3.1 °F 1.8 °F
Humidity: 80% 38% 57%
Wind Speed: 4.0mph 0.0mph 1.2mph
Wind Gust: 8.0mph - -
Wind- - East
Pressure: 30.53 in 30.23 in -
Precipitation: 0.00 in    
Historical Graphs
 
 
Tabular Data for March 13, 2017
Time Temperature Dew Point Pressure Wind Wind Speed Wind Gust Humidity Rainfall Rate (Hourly) solar
00:04 17.0 °F 6.2 °F 30.42 in Calm   1.0 mph 62% 0.00 in 0 W/m2
00:10 16.5 °F 5.7 °F 30.42 in NW 1.0 mph 1.0 mph 62% 0.00 in 0 W/m2
00:16 16.4 °F 6.0 °F 30.42 in NW 1.0 mph 4.0 mph 63% 0.00 in 0 W/m2
00:22 16.4 °F 6.0 °F 30.42 in NW 2.0 mph 2.0 mph 63% 0.00 in 0 W/m2
00:28 16.2 °F 5.5 °F 30.42 in NW 1.0 mph 2.0 mph 62% 0.00 in 0 W/m2
00:34 15.8 °F 5.4 °F 30.43 in Calm     63% 0.00 in 0 W/m2
00:40 15.4 °F 5.0 °F 30.43 in Calm     63% 0.00 in 0 W/m2
00:46 14.8 °F 4.8 °F 30.43 in Calm     64% 0.00 in 0 W/m2
00:52 14.3 °F 4.7 °F 30.43 in Calm     65% 0.00 in 0 W/m2
00:58 13.7 °F 4.1 °F 30.43 in Calm     65% 0.00 in 0 W/m2
01:04 13.1 °F 3.9 °F 30.43 in Calm     66% 0.00 in 0 W/m2
01:10 12.5 °F 3.9 °F 30.43 in Calm     68% 0.00 in 0 W/m2
01:16 11.9 °F 3.7 °F 30.43 in Calm     69% 0.00 in 0 W/m2
01:22 11.3 °F 3.4 °F 30.43 in Calm     70% 0.00 in 0 W/m2
01:28 10.8 °F 3.5 °F 30.43 in Calm     72% 0.00 in 0 W/m2
01:34 10.6 °F 3.6 °F 30.43 in Calm     73% 0.00 in 0 W/m2
01:40 10.2 °F 3.3 °F 30.43 in Calm     73% 0.00 in 0 W/m2
01:46 9.6 °F 2.7 °F 30.43 in Calm     73% 0.00 in 0 W/m2
01:52 9.2 °F 2.6 °F 30.43 in Calm     74% 0.00 in 0 W/m2
01:58 8.7 °F 2.1 °F 30.43 in Calm     74% 0.00 in 0 W/m2
02:04 8.3 °F 2.0 °F 30.43 in Calm     75% 0.00 in 0 W/m2
02:10 7.9 °F 1.6 °F 30.43 in Calm     75% 0.00 in 0 W/m2
02:16 7.8 °F 2.1 °F 30.43 in Calm     77% 0.00 in 0 W/m2
02:22 7.8 °F 2.1 °F 30.44 in Calm     77% 0.00 in 0 W/m2
02:28 8.2 °F 2.8 °F 30.44 in Calm     78% 0.00 in 0 W/m2
02:34 8.3 °F 3.1 °F 30.45 in Calm     79% 0.00 in 0 W/m2
02:40 7.9 °F 2.7 °F 30.45 in Calm     79% 0.00 in 0 W/m2
02:46 7.8 °F 2.6 °F 30.45 in Calm   3.0 mph 79% 0.00 in 0 W/m2
02:52 8.9 °F 4.0 °F 30.45 in Calm   1.0 mph 80% 0.00 in 0 W/m2
02:58 9.1 °F 3.6 °F 30.45 in Calm   1.0 mph 78% 0.00 in 0 W/m2
03:04 9.3 °F 3.5 °F 30.45 in NNW 1.0 mph 2.0 mph 77% 0.00 in 0 W/m2
03:10 10.1 °F 4.0 °F 30.45 in NNE 2.0 mph 2.0 mph 76% 0.00 in 0 W/m2
03:16 10.7 °F 3.4 °F 30.46 in NE 2.0 mph 4.0 mph 72% 0.00 in 0 W/m2
03:22 10.8 °F 2.9 °F 30.46 in ENE 1.0 mph 2.0 mph 70% 0.00 in 0 W/m2
03:28 10.8 °F 2.3 °F 30.46 in NE 1.0 mph 2.0 mph 68% 0.00 in 0 W/m2
03:34 10.6 °F 1.8 °F 30.46 in NE 1.0 mph 1.0 mph 67% 0.00 in 0 W/m2
03:40 10.3 °F 1.5 °F 30.46 in Calm     67% 0.00 in 0 W/m2
03:46 10.1 °F 1.3 °F 30.47 in Calm     67% 0.00 in 0 W/m2
03:52 9.8 °F 1.7 °F 30.46 in Calm     69% 0.00 in 0 W/m2
03:58 9.3 °F 1.5 °F 30.46 in Calm     70% 0.00 in 0 W/m2
04:04 8.9 °F 1.4 °F 30.46 in Calm     71% 0.00 in 0 W/m2
04:10 8.6 °F 1.1 °F 30.47 in Calm     71% 0.00 in 0 W/m2
04:16 8.2 °F 0.4 °F 30.47 in Calm     70% 0.00 in 0 W/m2
04:22 7.8 °F 0.6 °F 30.47 in Calm     72% 0.00 in 0 W/m2
04:28 7.5 °F 0.4 °F 30.47 in Calm     72% 0.00 in 0 W/m2
04:34 7.1 °F 0.3 °F 30.47 in Calm     73% 0.00 in 0 W/m2
04:40 6.9 °F 0.6 °F 30.47 in Calm     75% 0.00 in 0 W/m2
04:46 6.6 °F 0.4 °F 30.47 in Calm     75% 0.00 in 0 W/m2
04:52 6.2 °F 0.0 °F 30.48 in Calm     75% 0.00 in 0 W/m2
04:58 6.0 °F -0.2 °F 30.48 in Calm     75% 0.00 in 0 W/m2
05:04 5.9 °F -0.3 °F 30.48 in Calm     75% 0.00 in 0 W/m2
05:10 6.0 °F 0.1 °F 30.48 in Calm     76% 0.00 in 0 W/m2
05:16 6.1 °F 0.2 °F 30.48 in Calm     76% 0.00 in 0 W/m2
05:22 6.0 °F 0.1 °F 30.48 in Calm     76% 0.00 in 0 W/m2
05:28 5.8 °F -0.1 °F 30.48 in Calm     76% 0.00 in 0 W/m2
05:34 5.6 °F -0.3 °F 30.48 in Calm     76% 0.00 in 0 W/m2
05:40 5.4 °F -0.5 °F 30.48 in Calm     76% 0.00 in 0 W/m2
05:46 5.1 °F -0.8 °F 30.49 in Calm     76% 0.00 in 0 W/m2
05:52 4.8 °F -1.1 °F 30.49 in Calm     76% 0.00 in 0 W/m2
05:58 4.5 °F -1.1 °F 30.49 in Calm     77% 0.00 in 0 W/m2
06:04 4.3 °F -1.3 °F 30.49 in Calm     77% 0.00 in 0 W/m2
06:10 4.2 °F -1.4 °F 30.49 in Calm     77% 0.00 in 0 W/m2
06:16 4.3 °F -1.0 °F 30.49 in Calm     78% 0.00 in 0 W/m2
06:22 4.4 °F -0.9 °F 30.50 in Calm   1.0 mph 78% 0.00 in 0 W/m2
06:28 4.4 °F -0.9 °F 30.50 in Calm   1.0 mph 78% 0.00 in 0 W/m2
06:34 4.4 °F -0.9 °F 30.50 in Calm     78% 0.00 in 0 W/m2
06:40 4.4 °F -0.7 °F 30.50 in Calm     79% 0.00 in 0 W/m2
06:46 4.7 °F -0.4 °F 30.50 in Calm     79% 0.00 in 0 W/m2
06:52 5.0 °F -0.1 °F 30.50 in Calm     79% 0.00 in 0 W/m2
06:58 5.1 °F 0.0 °F 30.50 in Calm     79% 0.00 in 0 W/m2
07:04 5.2 °F 0.1 °F 30.50 in Calm     79% 0.00 in 0 W/m2
07:10 5.6 °F 0.8 °F 30.50 in Calm     80% 0.00 in 0 W/m2
07:16 6.0 °F 1.2 °F 30.50 in Calm     80% 0.00 in 0 W/m2
07:22 6.1 °F 1.3 °F 30.50 in Calm     80% 0.00 in 5 W/m2
07:28 6.2 °F 1.4 °F 30.50 in Calm     80% 0.00 in 9 W/m2
07:34 6.4 °F 1.5 °F 30.50 in Calm     80% 0.00 in 14 W/m2
07:40 6.4 °F 1.5 °F 30.50 in Calm     80% 0.00 in 18 W/m2
07:46 6.6 °F 1.7 °F 30.51 in Calm     80% 0.00 in 25 W/m2
07:52 6.9 °F 2.0 °F 30.51 in Calm     80% 0.00 in 33 W/m2
07:58 7.1 °F 2.2 °F 30.51 in Calm     80% 0.00 in 42 W/m2
08:04 7.4 °F 2.5 °F 30.51 in Calm     80% 0.00 in 49 W/m2
08:10 7.7 °F 2.8 °F 30.51 in Calm     80% 0.00 in 60 W/m2
08:16 8.2 °F 3.3 °F 30.52 in Calm     80% 0.00 in 69 W/m2
08:22 8.8 °F 3.9 °F 30.52 in Calm     80% 0.00 in 77 W/m2
08:28 9.3 °F 4.1 °F 30.52 in Calm     79% 0.00 in 90 W/m2
08:34 9.7 °F 3.9 °F 30.52 in Calm     77% 0.00 in 93 W/m2
08:40 10.1 °F 3.2 °F 30.52 in Calm   2.0 mph 73% 0.00 in 105 W/m2
08:46 10.5 °F 2.9 °F 30.51 in Calm   2.0 mph 71% 0.00 in 121 W/m2
08:52 11.0 °F 2.8 °F 30.51 in Calm     69% 0.00 in 134 W/m2
08:58 11.2 °F 1.0 °F 30.52 in Calm   2.0 mph 63% 0.00 in 132 W/m2
09:04 11.6 °F 1.1 °F 30.52 in Calm   2.0 mph 62% 0.00 in 139 W/m2
09:10 11.8 °F 0.9 °F 30.52 in NE 1.0 mph 2.0 mph 61% 0.00 in 155 W/m2
09:16 11.9 °F 1.0 °F 30.53 in ESE 1.0 mph 2.0 mph 61% 0.00 in 165 W/m2
09:22 12.0 °F 0.8 °F 30.53 in ESE 1.0 mph 1.0 mph 60% 0.00 in 178 W/m2
09:28 12.4 °F 0.8 °F 30.53 in Calm   3.0 mph 59% 0.00 in 188 W/m2
09:34 12.7 °F 1.1 °F 30.53 in ESE 1.0 mph 1.0 mph 59% 0.00 in 209 W/m2
09:40 13.2 °F 1.2 °F 30.53 in ESE 1.0 mph 1.0 mph 58% 0.00 in 218 W/m2
09:46 13.2 °F 0.8 °F 30.52 in ESE 1.0 mph 3.0 mph 57% 0.00 in 213 W/m2
09:52 13.3 °F 0.5 °F 30.52 in ESE 1.0 mph 4.0 mph 56% 0.00 in 230 W/m2
09:58 13.4 °F -0.6 °F 30.53 in East 1.0 mph 4.0 mph 53% 0.00 in 243 W/m2
10:04 13.6 °F -0.8 °F 30.53 in ESE 1.0 mph 1.0 mph 52% 0.00 in 253 W/m2
10:10 13.6 °F -1.2 °F 30.53 in SSE 1.0 mph 1.0 mph 51% 0.00 in 269 W/m2
10:16 13.6 °F -1.2 °F 30.53 in ESE 1.0 mph 2.0 mph 51% 0.00 in 264 W/m2
10:22 14.0 °F -1.3 °F 30.53 in SE 1.0 mph 4.0 mph 50% 0.00 in 283 W/m2
10:28 14.2 °F -1.5 °F 30.53 in East 2.0 mph 4.0 mph 49% 0.00 in 287 W/m2
10:34 14.3 °F -1.8 °F 30.53 in ENE 2.0 mph 3.0 mph 48% 0.00 in 322 W/m2
10:40 14.5 °F -1.2 °F 30.52 in NE 2.0 mph 3.0 mph 49% 0.00 in 325 W/m2
10:46 14.9 °F -0.8 °F 30.52 in SE 2.0 mph 4.0 mph 49% 0.00 in 336 W/m2
10:52 14.8 °F -1.8 °F 30.52 in ENE 2.0 mph 2.0 mph 47% 0.00 in 359 W/m2
10:58 15.0 °F -1.6 °F 30.51 in ESE 2.0 mph 3.0 mph 47% 0.00 in 350 W/m2
11:04 14.9 °F -2.2 °F 30.51 in ESE 2.0 mph 2.0 mph 46% 0.00 in 341 W/m2
11:10 15.3 °F -0.9 °F 30.51 in ESE 2.0 mph 2.0 mph 48% 0.00 in 352 W/m2
11:16 15.5 °F -2.6 °F 30.50 in ENE 2.0 mph 4.0 mph 44% 0.00 in 376 W/m2
11:22 15.1 °F -2.9 °F 30.50 in SE 3.0 mph 3.0 mph 44% 0.00 in 417 W/m2
11:28 15.7 °F -2.9 °F 30.49 in NE 2.0 mph 4.0 mph 43% 0.00 in 431 W/m2
11:34 15.6 °F -3.0 °F 30.49 in East 2.0 mph 3.0 mph 43% 0.00 in 392 W/m2
11:40 16.0 °F -3.1 °F 30.49 in NE 2.0 mph 3.0 mph 42% 0.00 in 378 W/m2
11:46 16.0 °F -2.1 °F 30.49 in ENE 2.0 mph 3.0 mph 44% 0.00 in 362 W/m2
11:52 16.2 °F -1.5 °F 30.48 in ENE 2.0 mph 2.0 mph 45% 0.00 in 367 W/m2
11:58 15.9 °F -2.7 °F 30.48 in SSE 2.0 mph 3.0 mph 43% 0.00 in 374 W/m2
12:04 15.8 °F -1.8 °F 30.48 in NNE 3.0 mph 3.0 mph 45% 0.00 in 371 W/m2
12:10 16.3 °F -0.9 °F 30.48 in NNE 3.0 mph 4.0 mph 46% 0.00 in 381 W/m2
12:16 16.7 °F -0.5 °F 30.47 in ENE 2.0 mph 7.0 mph 46% 0.00 in 396 W/m2
12:22 16.8 °F -1.4 °F 30.47 in NE 2.0 mph 6.0 mph 44% 0.00 in 392 W/m2
12:28 17.3 °F 0.0 °F 30.47 in NE 3.0 mph 6.0 mph 46% 0.00 in 418 W/m2
12:34 16.9 °F -1.3 °F 30.48 in ENE 3.0 mph 4.0 mph 44% 0.00 in 454 W/m2
12:40 16.8 °F -2.4 °F 30.48 in ESE 3.0 mph 3.0 mph 42% 0.00 in 443 W/m2
12:46 17.2 °F -0.5 °F 30.48 in North 2.0 mph 5.0 mph 45% 0.00 in 457 W/m2
12:52 17.4 °F -1.8 °F 30.47 in ENE 2.0 mph 2.0 mph 42% 0.00 in 443 W/m2
12:58 17.5 °F -1.2 °F 30.48 in NE 3.0 mph 3.0 mph 43% 0.00 in 464 W/m2
13:04 18.3 °F -1.0 °F 30.47 in North 2.0 mph 3.0 mph 42% 0.00 in 436 W/m2
13:10 18.0 °F -1.8 °F 30.46 in NE 1.0 mph 1.0 mph 41% 0.00 in 439 W/m2
13:16 18.1 °F -0.7 °F 30.46 in ENE 2.0 mph 3.0 mph 43% 0.00 in 496 W/m2
13:22 18.1 °F -0.7 °F 30.46 in ENE 2.0 mph 4.0 mph 43% 0.00 in 506 W/m2
13:28 17.9 °F -0.4 °F 30.46 in SE 3.0 mph 4.0 mph 44% 0.00 in 464 W/m2
13:34 18.8 °F 0.5 °F 30.46 in ESE 2.0 mph 2.0 mph 44% 0.00 in 388 W/m2
13:40 18.5 °F -0.8 °F 30.46 in NE 2.0 mph 2.0 mph 42% 0.00 in 338 W/m2
13:46 18.8 °F 1.9 °F 30.45 in North 2.0 mph 3.0 mph 47% 0.00 in 311 W/m2
13:52 18.4 °F -0.4 °F 30.45 in North 2.0 mph 3.0 mph 43% 0.00 in 304 W/m2
13:58 18.6 °F 0.3 °F 30.45 in NE 2.0 mph 3.0 mph 44% 0.00 in 309 W/m2
14:04 18.6 °F -0.2 °F 30.45 in South 2.0 mph 3.0 mph 43% 0.00 in 309 W/m2
14:10 18.5 °F -0.8 °F 30.44 in NNE 2.0 mph 2.0 mph 42% 0.00 in 297 W/m2
14:16 18.9 °F 0.5 °F 30.43 in NNE 3.0 mph 3.0 mph 44% 0.00 in 283 W/m2
14:22 19.3 °F 1.4 °F 30.43 in East 2.0 mph 2.0 mph 45% 0.00 in 274 W/m2
14:28 19.2 °F 0.8 °F 30.42 in SE 2.0 mph 4.0 mph 44% 0.00 in 271 W/m2
14:34 18.9 °F 1.0 °F 30.42 in ENE 2.0 mph 3.0 mph 45% 0.00 in 278 W/m2
14:40 18.8 °F 0.9 °F 30.42 in East 2.0 mph 3.0 mph 45% 0.00 in 258 W/m2
14:46 19.0 °F 0.6 °F 30.42 in NE 2.0 mph 3.0 mph 44% 0.00 in 257 W/m2
14:52 19.0 °F 0.1 °F 30.41 in NNE 2.0 mph 4.0 mph 43% 0.00 in 250 W/m2
14:58 19.0 °F 2.1 °F 30.41 in NE 3.0 mph 6.0 mph 47% 0.00 in 278 W/m2
15:04 19.5 °F 0.6 °F 30.40 in NE 3.0 mph 3.0 mph 43% 0.00 in 316 W/m2
15:10 19.6 °F 0.2 °F 30.40 in East 3.0 mph 3.0 mph 42% 0.00 in 306 W/m2
15:16 19.4 °F 0.5 °F 30.40 in NNE 2.0 mph 4.0 mph 43% 0.00 in 287 W/m2
15:22 19.5 °F -0.4 °F 30.39 in East 3.0 mph 5.0 mph 41% 0.00 in 255 W/m2
15:28 19.3 °F -0.6 °F 30.38 in North 4.0 mph 5.0 mph 41% 0.00 in 244 W/m2
15:34 19.6 °F 0.7 °F 30.39 in NNE 3.0 mph 3.0 mph 43% 0.00 in 227 W/m2
15:40 19.6 °F -0.3 °F 30.39 in North 4.0 mph 4.0 mph 41% 0.00 in 200 W/m2
15:46 19.7 °F 0.8 °F 30.38 in NNE 4.0 mph 5.0 mph 43% 0.00 in 200 W/m2
15:52 19.7 °F -0.2 °F 30.38 in ENE 3.0 mph 4.0 mph 41% 0.00 in 195 W/m2
15:58 19.8 °F 0.4 °F 30.38 in ENE 4.0 mph 5.0 mph 42% 0.00 in 195 W/m2
16:04 19.7 °F 0.3 °F 30.38 in NNE 4.0 mph 8.0 mph 42% 0.00 in 192 W/m2
16:10 19.7 °F 0.8 °F 30.37 in NNE 4.0 mph 4.0 mph 43% 0.00 in 202 W/m2
16:16 20.0 °F 0.6 °F 30.37 in NNE 3.0 mph 7.0 mph 42% 0.00 in 223 W/m2
16:22 19.9 °F 1.9 °F 30.37 in North 3.0 mph 4.0 mph 45% 0.00 in 209 W/m2
16:28 20.0 °F 0.0 °F 30.36 in NE 3.0 mph 5.0 mph 41% 0.00 in 206 W/m2
16:34 20.0 °F 0.6 °F 30.36 in ENE 3.0 mph 7.0 mph 42% 0.00 in 214 W/m2
16:40 20.3 °F -0.2 °F 30.36 in ENE 3.0 mph 5.0 mph 40% 0.00 in 221 W/m2
16:46 20.2 °F 0.2 °F 30.35 in North 3.0 mph 5.0 mph 41% 0.00 in 218 W/m2
16:52 20.4 °F 1.4 °F 30.35 in East 4.0 mph 6.0 mph 43% 0.00 in 195 W/m2
16:58 20.5 °F -1.1 °F 30.35 in NNE 4.0 mph 7.0 mph 38% 0.00 in 190 W/m2
17:04 20.5 °F -1.1 °F 30.34 in ENE 4.0 mph 5.0 mph 38% 0.00 in 179 W/m2
17:10 20.6 °F -1.0 °F 30.34 in ENE 4.0 mph 4.0 mph 38% 0.00 in 171 W/m2
17:16 20.8 °F 0.2 °F 30.35 in SE 3.0 mph 8.0 mph 40% 0.00 in 142 W/m2
17:22 20.6 °F -1.0 °F 30.34 in NNE 4.0 mph 6.0 mph 38% 0.00 in 137 W/m2
17:28 20.6 °F 0.6 °F 30.34 in ENE 3.0 mph 7.0 mph 41% 0.00 in 123 W/m2
17:34 20.7 °F 0.7 °F 30.34 in ENE 3.0 mph 4.0 mph 41% 0.00 in 111 W/m2
17:40 20.8 °F 0.8 °F 30.34 in East 3.0 mph 3.0 mph 41% 0.00 in 111 W/m2
17:46 20.9 °F 0.3 °F 30.34 in NE 2.0 mph 4.0 mph 40% 0.00 in 100 W/m2
17:52 20.9 °F 1.4 °F 30.34 in NE 2.0 mph 4.0 mph 42% 0.00 in 86 W/m2
17:58 21.0 °F 1.5 °F 30.34 in ENE 2.0 mph 4.0 mph 42% 0.00 in 74 W/m2
18:04 21.0 °F 2.0 °F 30.34 in NNE 3.0 mph 3.0 mph 43% 0.00 in 58 W/m2
18:10 21.0 °F 1.5 °F 30.34 in East 2.0 mph 2.0 mph 42% 0.00 in 51 W/m2
18:16 20.9 °F 1.4 °F 30.34 in East 2.0 mph 3.0 mph 42% 0.00 in 44 W/m2
18:22 20.9 °F 2.9 °F 30.34 in East 1.0 mph 2.0 mph 45% 0.00 in 37 W/m2
18:28 20.8 °F 1.8 °F 30.34 in NE 2.0 mph 5.0 mph 43% 0.00 in 30 W/m2
18:34 20.8 °F 2.8 °F 30.34 in ENE 2.0 mph 3.0 mph 45% 0.00 in 25 W/m2
18:40 20.8 °F 2.3 °F 30.34 in ENE 2.0 mph 2.0 mph 44% 0.00 in 19 W/m2
18:46 20.8 °F 3.7 °F 30.34 in ENE 1.0 mph 2.0 mph 47% 0.00 in 12 W/m2
18:52 20.8 °F 2.8 °F 30.34 in North 1.0 mph 1.0 mph 45% 0.00 in 9 W/m2
18:58 20.7 °F 3.2 °F 30.34 in NNE 1.0 mph 1.0 mph 46% 0.00 in 5 W/m2
19:04 20.7 °F 3.6 °F 30.33 in NNE 1.0 mph 1.0 mph 47% 0.00 in 0 W/m2
19:10 20.7 °F 3.6 °F 30.33 in NNE 1.0 mph 2.0 mph 47% 0.00 in 0 W/m2
19:18 20.7 °F 4.5 °F 30.33 in Calm   2.0 mph 49% 0.00 in 0 W/m2
19:24 20.6 °F 4.0 °F 30.33 in Calm   3.0 mph 48% 0.00 in 0 W/m2
19:30 20.6 °F 4.9 °F 30.33 in Calm   1.0 mph 50% 0.00 in 0 W/m2
19:36 20.5 °F 4.8 °F 30.33 in NNE 1.0 mph 3.0 mph 50% 0.00 in 0 W/m2
19:42 20.4 °F 5.1 °F 30.32 in North 1.0 mph 2.0 mph 51% 0.00 in 0 W/m2
19:48 20.2 °F 4.1 °F 30.32 in North 2.0 mph 2.0 mph 49% 0.00 in 0 W/m2
19:54 20.1 °F 4.0 °F 30.32 in North 2.0 mph 2.0 mph 49% 0.00 in 0 W/m2
20:00 20.1 °F 4.0 °F 30.32 in North 1.0 mph 1.0 mph 49% 0.00 in 0 W/m2
20:06 20.0 °F 4.3 °F 30.32 in North 1.0 mph 1.0 mph 50% 0.00 in 0 W/m2
20:12 19.9 °F 4.2 °F 30.32 in NE 1.0 mph 1.0 mph 50% 0.00 in 0 W/m2
20:18 19.9 °F 3.8 °F 30.32 in North 2.0 mph 5.0 mph 49% 0.00 in 0 W/m2
20:24 19.9 °F 3.8 °F 30.32 in North 2.0 mph 2.0 mph 49% 0.00 in 0 W/m2
20:30 19.9 °F 4.2 °F 30.32 in North 1.0 mph 1.0 mph 50% 0.00 in 0 W/m2
20:36 19.9 °F 4.7 °F 30.32 in Calm   3.0 mph 51% 0.00 in 0 W/m2
20:42 19.8 °F 4.6 °F 30.32 in Calm     51% 0.00 in 0 W/m2
20:48 19.8 °F 5.0 °F 30.32 in Calm   2.0 mph 52% 0.00 in 0 W/m2
20:54 19.8 °F 5.0 °F 30.32 in Calm     52% 0.00 in 0 W/m2
21:00 19.8 °F 5.0 °F 30.31 in Calm   1.0 mph 52% 0.00 in 0 W/m2
21:06 19.8 °F 5.0 °F 30.32 in Calm   3.0 mph 52% 0.00 in 0 W/m2
21:12 19.9 °F 5.1 °F 30.31 in North 1.0 mph 1.0 mph 52% 0.00 in 0 W/m2
21:18 19.9 °F 5.1 °F 30.31 in Calm   1.0 mph 52% 0.00 in 0 W/m2
21:24 19.9 °F 5.1 °F 30.32 in Calm   1.0 mph 52% 0.00 in 0 W/m2
21:30 19.9 °F 5.1 °F 30.31 in Calm   2.0 mph 52% 0.00 in 0 W/m2
21:36 20.0 °F 5.6 °F 30.31 in Calm   2.0 mph 53% 0.00 in 0 W/m2
21:42 20.0 °F 6.0 °F 30.31 in Calm   1.0 mph 54% 0.00 in 0 W/m2
21:48 20.0 °F 6.4 °F 30.31 in Calm   1.0 mph 55% 0.00 in 0 W/m2
21:54 20.0 °F 5.6 °F 30.29 in Calm   2.0 mph 53% 0.00 in 0 W/m2
22:00 20.1 °F 6.1 °F 30.28 in NNE 1.0 mph 1.0 mph 54% 0.00 in 0 W/m2
22:06 20.1 °F 6.1 °F 30.28 in NNE 1.0 mph 3.0 mph 54% 0.00 in 0 W/m2
22:12 20.1 °F 6.1 °F 30.27 in NNE 1.0 mph 1.0 mph 54% 0.00 in 0 W/m2
22:18 20.2 °F 6.6 °F 30.28 in NNE 1.0 mph 1.0 mph 55% 0.00 in 0 W/m2
22:24 20.2 °F 6.2 °F 30.27 in North 1.0 mph 2.0 mph 54% 0.00 in 0 W/m2
22:28 20.2 °F 6.2 °F 30.26 in North 1.0 mph 2.0 mph 54% 0.00 in 0 W/m2
22:34 20.3 °F 6.3 °F 30.26 in North 1.0 mph 3.0 mph 54% 0.00 in 0 W/m2
22:40 20.3 °F 6.3 °F 30.26 in NNE 1.0 mph 2.0 mph 54% 0.00 in 0 W/m2
22:46 20.4 °F 6.0 °F 30.25 in NNE 1.0 mph 2.0 mph 53% 0.00 in 0 W/m2
22:52 20.5 °F 6.5 °F 30.25 in NNE 1.0 mph 1.0 mph 54% 0.00 in 0 W/m2
22:58 20.8 °F 5.1 °F 30.24 in East 1.0 mph 5.0 mph 50% 0.00 in 0 W/m2
23:04 20.9 °F 5.6 °F 30.24 in ENE 2.0 mph 2.0 mph 51% 0.00 in 0 W/m2
23:10 21.2 °F 4.5 °F 30.24 in ESE 2.0 mph 4.0 mph 48% 0.00 in 0 W/m2
23:16 21.3 °F 4.6 °F 30.24 in NE 2.0 mph 4.0 mph 48% 0.00 in 0 W/m2
23:22 21.3 °F 5.5 °F 30.24 in ENE 1.0 mph 1.0 mph 50% 0.00 in 0 W/m2
23:28 21.3 °F 4.6 °F 30.24 in East 1.0 mph 2.0 mph 48% 0.00 in 0 W/m2
23:34 21.4 °F 4.7 °F 30.24 in NE 2.0 mph 3.0 mph 48% 0.00 in 0 W/m2
23:40 21.4 °F 4.7 °F 30.24 in NNE 2.0 mph 2.0 mph 48% 0.00 in 0 W/m2
23:46 21.4 °F 4.7 °F 30.24 in ENE 1.0 mph 2.0 mph 48% 0.00 in 0 W/m2
23:52 21.4 °F 5.2 °F 30.24 in ENE 1.0 mph 1.0 mph 49% 0.00 in 0 W/m2
23:58 21.5 °F 4.8 °F 30.23 in NE 2.0 mph 3.0 mph 48% 0.00 in 0 W/m2
Country Meadow, Clay, NY, USA
Compliments of Weather Underground - 2 mb